Location: Cahas Mountain Overlook
(37.0833°N, 80.1000°W)
Time: 07:04:52
(UTC-04:00)

Explorer 7 - Pass Details

Date: 11 February 2026
Orbit: 430 x 540 km, 50.2° (Epoch: 14 March)

Event Time Altitude Azimuth Distance (km) Brightness Sun altitude
Rises 20:44:47 0° 307° (NW) 2,560 11.0 -34.1°
Enters shadow 20:46:49 - 323° (NW) 1,987 10.2 -34.5°
Reaches altitude 10° 20:48:16 10° 340° (NNW) 1,712 - -34.7°
Maximum altitude 20:49:43 12° 3° (N) 1,617 - -35.0°
Drops below altitude 10° 20:51:12 10° 25° (NNE) 1,738 - -35.3°
Sets 20:54:49 0° 58° (ENE) 2,655 - -36.0°
